Location: Kapla
(46.2483°N, 15.0094°E)
Time: 18:42:45
(UTC+00:00)

Meteor 1-23 Rocket - Pass Details

Date: 03 March 2021
Orbit: 837 x 888 km, 81.3° (Epoch: 14 April)

Event Time Altitude Azimuth Distance (km) Brightness Sun altitude
Rises 19:22:05 0° 348° (NNW) 3,406 7.8 -26.9°
Reaches altitude 10° 19:24:29 10° 348° (NNW) 2,470 7.0 -27.2°
Maximum altitude 19:30:06 83° 262° (W) 859 4.1 -28.1°
Enters shadow 19:30:19 81° 216° (SW) 864 4.1 -28.2°
